Regional Weather Roundup
Issued by NWS

Home | Current Version | Previous Version | Text Only | Print | Product List | Glossary On
Versions: 1 2 3 4 5 6 7 8 9 10 11 12 13 14 15 16 17 18 19 20 21 22 23 24 25 26 27 28 29 30 31 32 33 34 35 36 37 38 39 40 41 42 43 44 45 46 47 48 49 50
000
ASUS45 KABQ 241210
RWRNM
NEW MEXICO REGIONAL WEATHER ROUNDUP
NATIONAL WEATHER SERVICE ALBUQUERQUE NM
600 AM MDT FRI MAR 24 2017

NOTE: "FAIR" MEANS FEW OR NO CLOUDS BELOW 12,000 FEET AGL WITH NO
       SIGNIFICANT WEATHER OR OBSTRUCTIONS TO VISION.

      THIS PRODUCT IS RELEASED AS TWO VERSIONS.  ONE VERSION NEAR
      THE TOP OF THE HOUR CONTAINING PRELIMINARY DATA FROM ALBUQUERQUE
      AND OTHER STATIONS.  A FINAL VERSION WITH ADDITIONAL DATA IS
      ISSUED ABOUT 10 MINUTES AFTER THE HOUR.

NMZ501-503-504-510>518-241300-
NORTHWEST PLATEAU/NORTHCENTRAL MOUNTAINS

CITY           SKY/WX    TMP DP  RH WIND       PRES   REMARKS
FARMINGTON     CLOUDY    40  50 100 W25G36    29.92R WCI  29
6HR MIN TEMP:  40; 6HR MAX TEMP:  41;

LOS ALAMOS     CLOUDY    38  28  67 NW16G28   29.77R WCI  29
SANTA FE       CLOUDY    38  34  85 W13       29.77R WCI  30
6HR MIN TEMP:  35; 6HR MAX TEMP:  38; 6HR PCP: TRACE;

TAOS             N/A     32  25  74 W9        29.76R WCI  24

$$
NMZ402-403-502-505>509-241300-
WESTCENTRAL MOUNTAINS/SOUTHWEST MOUNTAINS

CITY           SKY/WX    TMP DP  RH WIND       PRES   REMARKS
GALLUP         FAIR      34  27  75 W10       30.05R WCI  26
6HR MIN TEMP:  34; 6HR MAX TEMP:  37; 6HR PCP:  0.01;

GRANTS         FAIR      36  27  70 NW28G40   29.95R WCI  23
SILVER CITY    FAIR      40  28  64 NW22G29   30.06R WCI  29

$$
NMZ407-409-411-412-241300-
SOUTHERN DESERTS

CITY           SKY/WX    TMP DP  RH WIND       PRES   REMARKS
DEMING         FAIR      43  27  53 W21       30.05R
6HR MIN TEMP:  41; 6HR MAX TEMP:  45;

LAS CRUCES     FAIR      42  27  56 W18       30.03F
HOLLOMAN AFB   FAIR      46  28  49 S6        30.01R
ALAMOGORDO     MOCLDY    45  27  49 SW5       29.99R
T OR C         FAIR      47  25  42 VRB5G17   29.97R
6HR MIN TEMP:  42; 6HR MAX TEMP:  47;


$$
NMZ519>523-241300-
CENTRAL VALLEYS/CENTRAL HIGHLANDS

CITY           SKY/WX    TMP DP  RH WIND       PRES   REMARKS
ALBUQUERQUE    CLOUDY    46  29  51 NW10      29.88R
6HR MIN TEMP:  42; 6HR MAX TEMP:  46;

DOUBLE EAGLE   MOCLDY    43  28  56 W23G29    29.86R
MORIARTY ARPT  CLOUDY    41  33  74 W22G29    29.82R
6HR MIN TEMP:  37; 6HR MAX TEMP:  41;

CLINES CORNERS MIX PCPN  33  30  88 W35G44    29.75R WCI  18
6HR MIN TEMP:  31; 6HR MAX TEMP:  34; 6HR PCP: TRACE;

BELEN          CLOUDY    45  26  46 W18       29.88R
6HR MIN TEMP:  41; 6HR MAX TEMP:  46;

SOCORRO        FAIR      47  24  39 NW20G38   29.87F
6HR MIN TEMP:  45; 6HR MAX TEMP:  48;


$$
NMZ524>526-539-540-241300-
SOUTHCENTRAL MOUNTAINS

CITY           SKY/WX    TMP DP  RH WIND       PRES   REMARKS
RUIDOSO        MOCLDY    37  21  52 W20G31    29.89R WCI  27

$$
NMZ527>531-241300-
NORTHEAST HIGHLANDS/NORTHEAST PLAINS

CITY           SKY/WX    TMP DP  RH WIND       PRES   REMARKS
LAS VEGAS      CLOUDY    40  25  55 W24G33    29.65R WCI  29
6HR MIN TEMP:  34; 6HR MAX TEMP:  40;

RATON          LGT SNOW  36  31  82 N30G41    29.59R WCI  23
6HR MIN TEMP:  33; 6HR MAX TEMP:  44; 6HR PCP:  0.79;

CLAYTON        FAIR      42  37  82 NW29G40   29.38R
6HR MIN TEMP:  40; 6HR MAX TEMP:  46; 6HR PCP:  0.03;


$$
NMZ532>537-241300-
EASTCENTRAL PLAINS

CITY           SKY/WX    TMP DP  RH WIND       PRES   REMARKS
TUCUMCARI      LGT RAIN  48  37  65 W38G44    29.57R
6HR MIN TEMP:  48; 6HR MAX TEMP:  51; 6HR PCP: TRACE;

CANNON AFB     FAIR      46  24  41 SW29G39   29.67S
6HR MIN TEMP:  44; 6HR MAX TEMP:  49;

CLOVIS AIRPORT FAIR      46  23  39 SW31G39   29.67S

$$
NMZ028-029-538-241300-
SOUTHEAST PLAINS

CITY           SKY/WX    TMP DP  RH WIND       PRES   REMARKS
ROSWELL        FAIR      51  22  31 SW17      29.82
6HR MIN TEMP:  49; 6HR MAX TEMP:  54;

ARTESIA        FAIR      52  25  35 W25G37    29.83R
CARLSBAD       FAIR      53  26  35 MISG      29.83R
6HR MIN TEMP:  53; 6HR MAX TEMP:  57;

HOBBS          CLEAR     48  19  32 SW18      29.86S


$$




USA.gov is the U.S. government's official web portal to all federal, state and local government web resources and services.